Home > Weather > Tampa > Past weeks

Flag for USA Past Weather in Tampa, Florida, USA — Yesterday and Last 2 Weeks

Now
77 °F

Sunny.


Feels Like: 78 °F
Forecast: 78 / 92 °F
Wind: No wind

Location: Tampa, Peter O Knight Airport

Current Time: Jun 26, 2016 at 6:42:54 PM

Latest Report: Jun 26, 2016 at 5:55 PM


Visibility: 10 mi

Pressure: 30.07 "Hg

Humidity: 94%

Dew Point: 75 °F

Location of TampaLocation

Past Weather in Tampa — Graph

°F

Tampa Temperature Yesterday

Maximum temperature yesterday: 93 °F (at 1:55 PM)
Minimum temperature yesterday: 81 °F (at 4:15 AM)
Average temperature yesterday: 85 °F

High & Low Weather Summary for the Past Weeks

 TemperatureHumidityPressure
High95 °F (Jun 14, 4:15 PM)100% (Jun 12, 2:55 PM)30.22 "Hg (Jun 12, 2:55 PM)
Low70 °F (Jun 21, 4:15 AM)44% (Jun 21, 4:35 PM)29.90 "Hg (Jun 17, 7:15 PM)
Average85 °F75%30.06 "Hg
* Reported Jun 11 5:15 PM — Jun 26 5:15 PM, Tampa, Weather by CustomWeather, © 2016

Note: Actual official high and low records may vary slightly from our data, if they occured in-between our weather recording intervals... More about our weather records

Advertising

Tampa Weather History for the Previous 24 Hours

Scroll right to see more
 ConditionsComfort  
Time TempWeatherWind HumidityBarometerVisibility
5:15 PM
Sun, Jun 26
77 °FLight rain. Mostly cloudy.7 mph94%30.09 "Hg10 mi
4:55 PM77 °FLight rain. More clouds than sun.3 mph89%30.10 "Hg10 mi
4:35 PM77 °FLight rain. Cloudy.9 mph89%30.12 "Hg10 mi
4:15 PM77 °FRain. Broken clouds.13 mph89%30.12 "Hg10 mi
3:55 PM77 °FSunny.13 mph89%30.13 "Hg10 mi
3:35 PM75 °FLight rain. Scattered clouds.12 mph94%30.11 "Hg10 mi
3:15 PM73 °FRain. More clouds than sun.6 mph100%30.11 "Hg2 mi
2:55 PM75 °FHeavy rain. Low clouds.16 mph94%30.12 "Hg1 mi
2:35 PM81 °FHeavy rain. Mostly cloudy.30 mph84%30.10 "Hg2 mi
2:15 PM91 °FLight rain. Broken clouds.8 mph67%30.06 "Hg10 mi
1:55 PM91 °FLight rain. Scattered clouds.5 mph67%30.08 "Hg10 mi
1:15 PM93 °FScattered clouds.7 mph63%30.09 "Hg10 mi
12:55 PM95 °FScattered clouds.No wind60%30.09 "Hg10 mi
12:35 PM93 °FScattered clouds.3 mph63%30.11 "Hg10 mi
12:15 PM95 °FSunny.No wind56%30.11 "Hg10 mi
11:55 AM93 °FSunny.No wind63%30.12 "Hg10 mi
11:35 AM91 °FScattered clouds.3 mph67%30.12 "Hg10 mi
11:15 AM91 °FScattered clouds.3 mph67%30.13 "Hg10 mi
10:55 AM90 °FSunny.5 mph71%30.13 "Hg10 mi
10:15 AM88 °FSunny.No wind75%30.13 "Hg10 mi
9:55 AM88 °FSunny.3 mph75%30.12 "Hg10 mi
9:35 AM86 °FSunny.No wind79%30.12 "Hg10 mi
9:15 AM86 °FSunny.No wind75%30.12 "Hg10 mi
8:55 AM86 °FSunny.No wind75%30.12 "Hg10 mi
8:15 AM82 °FScattered clouds.No wind84%30.12 "Hg10 mi
7:55 AM82 °FSunny.3 mph89%30.12 "Hg10 mi
7:35 AM82 °FScattered clouds.3 mph84%30.11 "Hg10 mi
7:15 AM81 °FPassing clouds.No wind89%30.10 "Hg10 mi
6:55 AM81 °FPassing clouds.No wind89%30.10 "Hg10 mi
6:15 AM81 °FClear.No wind89%30.08 "Hg10 mi
5:55 AM81 °FClear.No wind89%30.08 "Hg10 mi
5:35 AM82 °FClear.No wind84%30.07 "Hg10 mi
5:15 AM82 °FClear.3 mph84%30.07 "Hg10 mi
4:55 AM82 °FClear.3 mph84%30.07 "Hg10 mi
4:15 AM82 °FClear.5 mph84%30.07 "Hg10 mi
3:55 AM81 °FClear.5 mph89%30.07 "Hg10 mi
3:15 AM82 °FClear.No wind89%30.07 "Hg10 mi
2:55 AM81 °FClear.No wind89%30.07 "Hg10 mi
2:35 AM81 °FClear.No wind89%30.08 "Hg10 mi
2:15 AM82 °FClear.No wind84%30.08 "Hg10 mi
1:55 AM81 °FClear.No wind89%30.08 "Hg10 mi
1:35 AM82 °FClear.No wind84%30.09 "Hg10 mi
1:15 AM82 °FClear.No wind84%30.09 "Hg10 mi
12:55 AM82 °FClear.No wind84%30.09 "Hg10 mi
12:15 AM84 °FClear.3 mph79%30.10 "Hg10 mi
11:55 PM
Sat, Jun 25
82 °FClear.3 mph84%30.10 "Hg10 mi
11:35 PM82 °FClear.No wind79%30.10 "Hg10 mi
11:15 PM82 °FClear.No wind84%30.10 "Hg10 mi
10:55 PM82 °FClear.No wind84%30.10 "Hg10 mi
10:15 PM82 °FClear.No wind74%30.09 "Hg10 mi
9:55 PM82 °FClear.3 mph74%30.09 "Hg10 mi
9:35 PM82 °FClear.No wind74%30.08 "Hg10 mi
9:15 PM82 °FSunny.No wind74%30.07 "Hg10 mi
8:55 PM82 °FSunny.No wind74%30.06 "Hg10 mi
8:35 PM82 °FSunny.No wind74%30.06 "Hg10 mi
8:15 PM82 °FSunny.6 mph74%30.05 "Hg10 mi
7:55 PM82 °FScattered clouds.3 mph74%30.05 "Hg10 mi
7:35 PM82 °FScattered clouds.3 mph74%30.06 "Hg10 mi
7:15 PM84 °FSunny.No wind70%30.06 "Hg10 mi
6:55 PM84 °FSunny.5 mph74%30.05 "Hg10 mi
6:35 PM84 °FSunny.7 mph79%30.04 "Hg10 mi
6:15 PM86 °FSunny.5 mph70%30.05 "Hg10 mi
Weather by CustomWeather, © 2016

See weather overviewHow to use our weather pages